THOR ABLESTAR DEB, 172

Orbit data source: Space-Track

THOR ABLESTAR DEB, 172 is space debris in LEO originally from a launch on Thu, 29 Jun 1961 UTC launched from the Air Force Eastern Test Range (AFETR). Debris objects in space refer to the collection of defunct objects orbiting the Earth. Examples of debris include non-operational satellites, rocket bodies, and fragments generated from explosions, collisions, or faulty payload assembly.

Loading next visibility...
Identifier
172, 1961-015AY
Orbit
LEO
Country
Flag of USUS
Related business
Manufacturer
Unknown
Mission
Spacecraft
Bus & Motor
Unknown
Mass
Unknown
Launch date (UTC)
1961-06-29 (65 years ago)
Launch vehicle
Unknown
Launch site
Air Force Eastern Test Range (AFETR)
Object type
Payload
Rocket body
Debris
Shape & HBR
Unknown shape, 0.2 m
Radar Cross Section
Small (<0.1 m²)

Expand to show TLE details & history
Last TLE update: 13 hours ago

TLE from 13 hours ago
0 THOR ABLESTAR DEB
1 00172U 61015AY  26094.96775221  .00000599  00000-0  85833-3 0  9996
2 00172  67.0694 335.8043 0127132 117.4068 243.9997 13.59226896195169
Epoch: 2026-04-04T23:13Z
TLE epoch observation values (Epoch: 2026-04-04T23:13:33.790Z)
Latitude
-0.00001°
Longitude
154.13358°
Altitude
1,082.868 km
Speed
7.29 km/s
True Right ascension
22h 23m 13s
True Declination
0° 00' 00"
Sunlit
Object was in daylight at epoch
Visualization orbit readout
Latitude
Unknown
Longitude
Unknown
Altitude
Unknown
Speed
Unknown
Apparent Right ascension
Unknown
Apparent Declination
Unknown
Sunlit
N/A
Visualization observer readout
Local Sidereal Time
17:59:28
Azimuth
Unknown
Elevation
Unknown
Doppler factor
Unknown
Orbital elements
Apogee altitude
1,131.159 km
Perigee altitude
942.622 km
Semi-major axis
7,415.027 km
Eccentricity
0.01271
Inclination
67.0694°
RAAN
335.8043°
Arg. of periapsis
117.4068°
True anomaly
242.69949°
Mean anomaly
243.9997°
Eccentric anomaly
243.34868°
Mean motion
3.39918 °/min
Orbital period
105.91 mins
BSTAR
0.00085833
Loading maneuver chart data...
Computing Atmospheric mass density...

Documentation

Showing up to 5 results
|